Temperature
7 7 7 6 6 6 6 6 6 6 6 5 5 5 5 5 5 5 5 4 4 4 4 3 3 3 3 3 3 2 2 2 2 2 2 2 2 2 3 3 3 3 3
6 6 6 6 6 6 6 5 5 5 5 5 5 5 5 4 4 4 4 4 4 4 3 3 3 3 3 2 2 2 2 2 1 1 2 2 2 2 2 2 2 2 2
6 6 6 6 5 5 5 5 5 5 5 5 4 4 4 4 4 4 4 3 3 3 3 3 2 2 2 2 1 1 1 1 1 1 1 1 1 1 1 2 2 2 2
6 5 5 5 5 5 5 5 4 4 4 4 4 4 3 3 3 3 3 3 3 3 2 2 2 2 1 1 1 1 1 1 0 0 0 0 0 0 0 1 1 1 1
5 5 5 5 5 4 4 4 4 4 4 4 3 3 3 3 3 3 2 2 2 2 2 2 1 1 1 1 0 0 0 -0 -0 -1 -1 -1 -0 -1 -1 -0 -0 -0 0
5 5 5 4 4 4 4 4 4 3 3 3 3 3 3 3 3 2 2 2 2 1 1 1 1 1 1 0 0 -0 -0 -1 -1 -1 -1 -1 -1 -1 -1 -1 -1 -1 -1
5 5 4 4 4 4 3 3 3 3 3 3 3 2 2 2 2 2 1 1 1 1 1 1 1 0 0 -0 -1 -1 -1 -1 -1 -1 -2 -1 -2 -2 -2 -2 -2 -2 -2
4 4 4 4 3 3 3 3 3 3 2 2 2 2 2 2 2 1 1 1 1 1 0 0 -0 -0 -0 -1 -1 -1 -1 -1 -1 -2 -2 -2 -2 -2 -2 -2 -2 -2 -2
4 4 4 3 3 3 3 2 2 2 2 2 2 1 1 1 1 1 0 0 0 0 -0 -0 -1 -1 -1 -1 -1 -1 -1 -1 -2 -2 -2 -2 -2 -2 -3 -3 -3 -3 -3
3 3 3 3 2 2 2 2 2 2 2 1 1 1 1 1 1 0 -0 -0 -0 -0 -1 -1 -1 -1 -1 -2 -2 -2 -2 -2 -2 -2 -2 -2 -2 -3 -3 -3 -3 -3 -4
3 3 3 2 2 2 2 1 1 1 1 1 1 0 0 0 0 0 -0 -1 -1 -1 -1 -1 -1 -1 -2 -2 -2 -2 -2 -2 -3 -2 -3 -3 -3 -3 -3 -3 -3 -4 -4
2 2 2 2 2 1 1 1 1 1 0 0 0 -0 -0 -0 -0 -0 -1 -1 -1 -1 -2 -2 -2 -2 -2 -2 -2 -2 -3 -3 -3 -3 -3 -3 -3 -3 -3 -3 -3 -4 -4
2 2 2 2 1 1 1 1 1 0 -0 -0 -0 -0 -0 -1 -1 -1 -1 -1 -1 -2 -2 -2 -2 -2 -3 -3 -3 -3 -3 -3 -4 -4 -4 -4 -4 -4 -4 -4 -4 -4 -4
2 1 1 1 1 1 1 0 0 -0 -0 -0 -1 -1 -1 -1 -1 -2 -2 -2 -2 -2 -2 -2 -3 -3 -3 -3 -3 -3 -4 -4 -4 -4 -4 -4 -4 -4 -4 -4 -4 -4 -4
1 1 1 1 1 0 0 -0 -0 -0 -1 -1 -1 -1 -1 -1 -1 -2 -2 -2 -2 -2 -3 -3 -3 -3 -3 -3 -3 -4 -4 -4 -4 -4 -5 -5 -5 -5 -5 -5 -5 -5 -5
1 1 0 0 0 -0 -0 -0 -0 -1 -1 -1 -1 -1 -1 -2 -2 -2 -2 -2 -2 -3 -3 -3 -3 -4 -4 -4 -4 -4 -4 -4 -4 -5 -5 -5 -5 -5 -5 -5 -5 -5 -6
0 0 0 -0 -0 -1 -1 -1 -1 -1 -1 -1 -1 -1 -2 -2 -2 -2 -2 -2 -3 -3 -3 -3 -3 -4 -4 -4 -4 -4 -4 -5 -5 -5 -5 -5 -5 -6 -6 -6 -6 -6 -6
-0 -0 -0 -0 -1 -1 -1 -1 -1 -2 -2 -1 -2 -2 -2 -2 -2 -2 -3 -3 -3 -3 -3 -3 -4 -4 -4 -4 -5 -5 -5 -5 -5 -5 -6 -6 -6 -6 -6 -6 -6 -6 -6
-1 -1 -1 -1 -1 -1 -1 -2 -2 -2 -2 -2 -2 -2 -2 -2 -3 -3 -3 -3 -3 -3 -3 -4 -4 -4 -4 -5 -5 -5 -5 -5 -6 -6 -6 -6 -6 -6 -6 -6 -6 -6 -6
-1 -1 -1 -1 -1 -2 -2 -2 -2 -2 -2 -2 -3 -3 -3 -3 -3 -3 -3 -3 -3 -3 -3 -4 -4 -4 -5 -5 -5 -5 -5 -6 -6 -6 -6 -6 -6 -6 -7 -7 -7 -7 -7
-1 -2 -2 -2 -2 -2 -2 -2 -3 -3 -3 -3 -3 -3 -3 -3 -3 -3 -3 -3 -3 -3 -4 -4 -4 -4 -5 -5 -5 -5 -5 -6 -6 -6 -6 -6 -7 -7 -7 -7 -7 -7 -7
-2 -2 -2 -2 -2 -3 -3 -3 -3 -3 -3 -3 -3 -3 -3 -3 -3 -4 -4 -4 -4 -4 -4 -4 -4 -4 -5 -5 -5 -6 -6 -6 -6 -6 -6 -7 -7 -7 -7 -7 -7 -7 -7
-2 -2 -3 -3 -3 -3 -3 -3 -3 -3 -3 -3 -3 -3 -3 -4 -4 -4 -4 -4 -4 -4 -4 -4 -5 -5 -5 -5 -6 -6 -6 -6 -6 -6 -7 -7 -7 -7 -7 -7 -7 -7 -8
-3 -3 -3 -3 -3 -3 -3 -3 -4 -4 -4 -4 -4 -4 -4 -4 -4 -4 -4 -4 -4 -4 -4 -5 -5 -5 -5 -5 -6 -6 -6 -6 -6 -6 -7 -7 -7 -7 -7 -7 -8 -8 -8
-3 -3 -3 -3 -3 -4 -4 -4 -4 -4 -4 -4 -4 -4 -4 -4 -4 -4 -4 -4 -4 -5 -5 -5 -5 -5 -5 -6 -6 -6 -6 -6 -6 -7 -7 -7 -7 -7 -7 -8 -8 -8 -8
-3 -3 -3 -3 -4 -4 -4 -4 -4 -4 -4 -4 -4 -4 -4 -4 -4 -4 -5 -5 -5 -5 -5 -5 -5 -5 -6 -6 -6 -6 -6 -6 -6 -7 -7 -7 -7 -7 -8 -8 -8 -8 -8
Wind_Speed
4 4 4 4 3 4 4 4 4 3 3 3 3 3 3 3 3 3 4 3 3 4 4 4 4 4 4 4 4 4 5 6 8 8 7 7 9 9 9 9 10 10 9
4 4 4 4 4 4 4 4 4 4 4 4 3 3 3 4 4 4 4 4 4 4 5 5 5 4 5 4 4 5 5 6 7 9 8 7 9 9 9 10 9 8 9
3 4 4 4 4 4 5 4 4 4 4 4 4 4 4 4 4 5 5 5 5 5 5 5 5 5 5 5 5 6 5 6 6 8 9 7 7 7 9 9 9 8 9
4 4 5 5 5 5 5 4 4 4 5 5 5 5 5 5 5 5 5 5 5 5 6 6 6 6 6 6 6 6 6 6 6 7 8 8 7 7 7 7 8 8 8
4 5 5 5 4 4 4 4 4 5 5 5 5 5 5 5 5 5 5 6 6 6 6 6 6 6 7 7 6 6 6 6 6 7 7 7 7 7 7 7 8 9 9
5 5 5 4 4 4 5 5 5 5 5 5 6 6 6 5 6 8 7 6 6 7 6 6 6 6 7 9 10 9 9 8 8 7 7 8 9 8 8 8 8 9 7
5 5 5 5 5 5 5 5 5 6 6 6 6 6 7 7 7 8 9 7 7 7 7 6 5 5 7 6 8 9 10 11 11 9 9 10 10 9 9 10 9 10 10
5 6 6 5 6 5 5 6 6 5 6 6 6 6 7 7 8 9 9 8 7 7 7 7 7 6 6 6 7 7 8 8 9 8 9 9 9 9 9 10 10 11 10
6 6 6 6 6 6 6 6 6 6 6 6 6 6 7 7 7 8 8 6 7 8 7 7 7 7 8 8 7 7 8 8 8 10 11 11 12 12 10 8 8 8 8
6 6 6 6 7 7 7 7 6 5 6 6 6 6 7 7 7 8 8 5 6 6 6 7 8 9 8 8 7 7 8 8 7 7 8 9 9 9 9 7 7 7 7
6 6 6 6 7 7 7 6 6 5 5 6 6 6 6 7 7 8 8 6 6 6 6 6 6 9 10 9 8 7 8 8 7 7 7 7 6 6 6 6 6 6 7
6 6 7 7 6 5 6 6 5 5 6 6 5 6 5 5 6 7 9 9 8 7 7 6 6 7 9 9 8 8 9 8 5 5 6 6 6 6 6 6 7 8 8
6 7 7 6 6 6 6 6 5 5 5 5 5 5 5 4 5 8 9 10 10 8 7 7 7 7 7 7 8 8 7 5 5 5 6 6 6 6 6 6 6 7 8
7 7 6 6 6 6 5 5 5 5 5 5 5 5 5 5 4 4 5 6 7 7 7 7 8 8 6 6 6 5 5 5 5 5 6 6 5 5 5 5 5 5 5
7 6 6 6 6 5 5 5 6 6 6 6 6 5 5 6 6 6 5 5 5 5 4 4 4 4 4 4 4 4 4 4 5 5 5 6 5 5 5 4 4 4 5
6 6 5 5 5 5 5 5 6 8 8 10 9 8 7 8 8 8 8 9 8 7 5 4 5 5 5 5 5 5 5 5 5 5 5 5 5 5 5 5 4 4 5
7 7 5 5 5 5 5 5 5 5 8 10 10 11 10 9 9 9 9 9 9 8 6 6 5 5 5 5 5 5 5 5 4 5 5 5 5 5 5 5 5 5 5
7 7 6 6 6 5 5 5 5 5 5 5 7 10 11 10 9 9 8 6 6 6 6 6 6 6 5 6 5 5 5 5 4 5 5 5 5 5 5 5 5 5 5
7 6 6 6 5 5 5 5 5 6 6 5 5 5 8 8 9 8 7 5 6 6 6 6 6 5 5 6 5 5 5 5 5 5 5 5 5 5 5 5 5 7 6
7 8 7 6 5 5 5 6 6 6 6 5 5 5 4 4 4 5 5 5 6 6 6 6 5 5 5 5 5 5 5 5 5 5 5 5 5 5 5 5 5 5 5
6 6 7 6 6 6 6 6 6 6 6 6 6 6 6 5 5 5 5 5 6 6 6 5 5 5 5 5 5 5 6 5 5 5 5 5 4 4 4 4 5 5 4
5 5 5 6 5 5 6 6 6 6 6 7 6 6 8 6 5 5 5 5 5 5 5 5 5 5 5 5 5 5 6 6 5 5 5 4 4 4 4 4 4 4 4
6 6 6 6 5 7 7 6 6 6 6 6 6 5 5 5 5 5 6 5 5 5 5 5 5 5 4 4 5 5 6 6 5 5 5 4 4 4 4 4 4 4 4
6 6 6 6 5 6 6 6 6 6 6 6 6 6 5 5 5 6 5 5 5 5 5 5 5 6 6 5 5 5 5 5 5 5 5 5 4 4 4 4 4 4 4
6 6 6 6 6 6 6 6 6 6 6 6 6 6 5 5 5 5 5 5 5 5 5 5 5 5 6 6 6 5 6 7 6 4 4 4 5 4 4 4 4 4 4
6 6 6 5 6 6 6 6 6 6 6 6 6 5 5 5 5 5 5 4 4 4 5 5 5 6 6 6 7 7 7 7 7 6 4 4 4 4 4 3 4 4 4
Wind_Direction
247 250 251 254 256 254 250 253 254 250 248 248 248 250 255 256 254 247 247 250 249 246 241 242 250 261 264 265 266 266 267 270 275 286 288 293 296 296 299 299 298 296 294
252 254 255 257 255 254 256 256 255 254 251 251 249 249 253 257 257 254 251 251 253 254 250 244 250 256 263 267 267 266 268 271 278 286 290 294 296 300 301 300 298 296 292
253 253 254 252 250 252 256 260 256 253 250 247 244 243 249 254 256 255 255 254 256 259 258 254 255 257 264 265 268 269 270 273 274 280 288 293 294 299 302 299 296 295 294
249 249 251 252 252 254 256 257 257 253 247 244 244 244 246 248 252 254 255 256 258 259 260 258 257 255 260 264 266 268 272 274 273 275 281 288 291 298 302 305 306 304 300
247 249 254 258 258 258 256 256 256 254 251 247 247 248 248 246 247 250 253 256 258 261 260 258 258 261 267 267 266 268 269 270 272 274 278 285 289 297 301 306 302 307 302
249 254 258 259 256 254 256 256 255 255 252 247 247 248 249 248 244 244 250 254 256 258 262 262 262 259 261 264 266 269 267 265 269 272 276 279 286 293 297 299 302 304 302
251 256 256 254 255 255 255 253 254 256 254 249 249 250 252 253 247 246 246 251 253 256 260 261 262 262 263 265 267 267 265 264 264 268 272 276 285 290 293 293 293 294 290
251 255 256 254 257 259 256 255 256 257 256 254 253 253 256 257 251 252 251 248 251 254 255 256 259 264 261 266 274 272 272 267 263 263 269 277 281 285 282 283 288 292 289
251 254 255 253 255 257 257 259 260 259 259 257 257 255 256 260 252 252 254 253 251 254 255 253 255 260 261 266 271 273 278 278 270 266 271 277 282 282 283 284 284 286 291
256 260 261 255 253 254 258 261 260 258 261 262 258 256 256 260 253 250 251 249 252 256 256 253 250 256 263 265 265 268 274 282 287 284 277 275 276 276 278 274 276 278 284
263 262 261 257 254 256 259 259 257 256 259 261 261 262 260 259 256 250 249 244 248 255 256 256 253 254 261 264 266 266 274 288 287 284 283 282 283 282 282 278 274 269 271
261 259 260 259 257 253 253 256 254 251 254 260 263 269 267 260 255 253 250 249 252 252 255 258 259 258 260 264 264 269 277 281 279 279 281 282 285 286 287 286 279 273 268
260 261 262 261 258 252 249 250 250 246 250 258 260 266 271 268 259 251 254 254 254 255 258 260 263 262 263 262 263 269 271 268 269 273 277 281 284 287 289 286 284 280 276
259 263 263 260 260 255 249 245 244 244 248 256 258 262 269 271 265 258 253 254 254 255 259 255 253 254 256 260 266 266 262 263 268 271 277 282 285 284 283 285 287 292 290
259 260 259 256 255 255 250 247 246 247 246 250 258 260 262 265 264 260 258 249 247 247 251 248 244 248 251 254 260 264 265 265 267 271 276 279 282 284 285 288 286 288 283
255 256 254 252 251 251 254 261 248 249 255 255 260 263 262 266 275 267 263 259 251 243 241 244 244 246 251 256 261 264 263 264 265 269 273 274 276 281 285 287 282 277 280
249 253 253 251 249 249 249 253 268 264 251 252 255 258 260 267 267 266 264 259 248 234 238 244 246 249 253 256 259 260 263 265 267 266 269 273 275 276 279 282 282 280 281
251 250 248 251 249 248 248 250 254 263 270 270 258 256 260 261 263 264 262 256 246 234 239 244 246 249 253 255 256 259 263 265 264 265 267 270 273 273 274 278 278 277 281
251 250 248 250 249 249 248 249 252 254 260 268 275 267 258 259 258 256 248 242 242 242 242 244 245 247 251 254 256 257 257 259 262 263 266 267 268 270 273 275 277 275 276
249 245 244 249 250 249 247 247 249 251 254 258 260 265 265 255 253 248 239 238 241 244 244 246 246 246 247 250 252 252 254 255 257 259 262 265 265 266 271 276 279 278 277
252 248 238 245 247 247 247 247 249 250 252 256 258 258 253 251 251 250 247 243 244 244 243 245 247 247 244 245 246 247 249 253 253 255 258 259 261 264 269 273 277 280 282
249 247 244 244 246 246 249 249 249 250 252 255 261 259 252 250 250 251 250 250 250 247 243 241 244 246 242 239 241 243 247 250 251 250 252 254 257 260 265 269 275 281 283
248 247 247 247 248 249 251 249 248 249 251 253 256 256 252 248 248 250 252 253 252 248 241 236 240 243 244 240 239 239 244 248 248 246 245 247 249 252 255 262 268 277 281
247 246 248 249 249 249 250 251 251 251 253 254 253 252 252 250 251 253 253 252 250 248 243 238 238 242 242 241 241 244 248 251 247 240 236 237 241 247 248 255 263 270 276
248 248 249 249 249 250 252 254 253 253 253 253 253 254 254 253 252 253 251 247 246 247 246 245 243 242 240 239 242 248 253 250 248 245 231 234 237 238 244 253 260 269 278
249 249 251 251 251 251 253 253 253 252 253 254 253 254 254 253 252 251 247 244 245 248 249 248 246 245 244 242 245 249 252 249 246 244 237 236 236 239 240 249 258 264 274
Height
1491 1490 1490 1489 1488 1488 1487 1486 1485 1484 1483 1482 1481 1480 1479 1478 1477 1476 1475 1473 1473 1472 1472 1472 1472 1471 1470 1470 1469 1468 1467 1466 1463 1460 1459 1457 1455 1453 1451 1448 1446 1444 1442
1488 1487 1486 1486 1485 1484 1483 1482 1481 1480 1479 1478 1477 1476 1475 1474 1473 1472 1471 1470 1469 1468 1468 1467 1467 1466 1466 1465 1464 1463 1463 1461 1459 1456 1454 1452 1451 1449 1446 1443 1441 1439 1437
1484 1484 1483 1482 1481 1480 1480 1479 1478 1477 1476 1475 1474 1473 1472 1471 1470 1469 1467 1466 1465 1464 1463 1462 1462 1461 1461 1460 1459 1459 1458 1457 1455 1452 1449 1448 1446 1444 1441 1439 1437 1434 1432
1481 1480 1479 1479 1478 1477 1476 1475 1474 1473 1472 1471 1470 1469 1468 1467 1466 1465 1464 1462 1461 1460 1459 1458 1457 1457 1456 1456 1455 1454 1453 1452 1450 1448 1445 1443 1441 1439 1437 1434 1431 1429 1426
1478 1477 1476 1475 1474 1473 1472 1471 1470 1469 1468 1467 1466 1465 1464 1463 1462 1461 1459 1458 1457 1456 1455 1454 1453 1452 1451 1451 1450 1449 1448 1447 1445 1443 1441 1439 1437 1435 1433 1430 1427 1424 1422
1474 1473 1472 1471 1470 1469 1468 1467 1466 1465 1464 1463 1462 1461 1460 1459 1458 1457 1455 1454 1453 1452 1451 1450 1449 1448 1447 1446 1445 1444 1444 1442 1441 1439 1437 1435 1432 1431 1429 1426 1423 1420 1417
1470 1469 1468 1467 1466 1465 1464 1463 1462 1461 1459 1458 1457 1456 1455 1454 1453 1452 1451 1450 1449 1448 1447 1445 1444 1443 1443 1442 1441 1439 1438 1437 1437 1435 1432 1430 1428 1426 1424 1422 1419 1417 1413
1466 1465 1464 1463 1462 1461 1459 1458 1457 1456 1455 1453 1452 1451 1450 1449 1448 1447 1446 1445 1444 1443 1442 1441 1440 1439 1438 1437 1436 1434 1433 1432 1431 1429 1427 1425 1424 1422 1420 1418 1415 1411 1409
1461 1460 1459 1458 1457 1456 1454 1453 1452 1451 1450 1448 1447 1446 1445 1444 1443 1442 1441 1440 1439 1438 1438 1437 1436 1435 1434 1433 1431 1430 1428 1427 1426 1424 1422 1420 1418 1417 1415 1413 1410 1407 1403
1456 1455 1454 1453 1452 1451 1450 1449 1448 1446 1445 1443 1442 1441 1440 1439 1438 1437 1437 1435 1434 1434 1433 1432 1432 1431 1430 1428 1427 1425 1423 1422 1420 1418 1416 1415 1413 1411 1409 1408 1405 1403 1399
1452 1450 1449 1448 1447 1446 1445 1444 1443 1441 1440 1438 1437 1436 1435 1434 1433 1432 1432 1431 1430 1429 1428 1427 1427 1426 1425 1424 1422 1421 1419 1418 1415 1413 1411 1409 1408 1406 1404 1402 1400 1398 1396
1446 1445 1444 1443 1442 1441 1440 1439 1438 1436 1435 1434 1432 1431 1430 1429 1428 1427 1427 1426 1425 1424 1423 1423 1422 1421 1420 1419 1418 1416 1415 1413 1411 1409 1406 1405 1403 1401 1399 1397 1395 1393 1391
1441 1440 1439 1438 1437 1436 1435 1434 1432 1431 1430 1429 1428 1426 1425 1425 1424 1423 1422 1421 1420 1420 1419 1418 1418 1417 1415 1414 1413 1412 1410 1408 1406 1404 1402 1400 1399 1397 1394 1392 1390 1388 1386
1436 1435 1434 1433 1432 1431 1430 1429 1427 1426 1425 1424 1423 1422 1421 1420 1419 1418 1417 1416 1416 1415 1414 1413 1413 1412 1411 1409 1408 1407 1406 1404 1402 1400 1398 1396 1394 1392 1390 1388 1385 1383 1380
1431 1430 1429 1428 1427 1426 1425 1424 1422 1421 1421 1420 1419 1418 1417 1415 1415 1414 1413 1412 1411 1410 1409 1408 1408 1407 1406 1404 1403 1402 1401 1399 1398 1396 1394 1392 1390 1388 1386 1384 1381 1379 1377
1426 1425 1423 1422 1421 1420 1419 1418 1417 1417 1416 1415 1414 1413 1412 1412 1411 1409 1409 1408 1407 1406 1405 1404 1403 1402 1401 1400 1399 1397 1396 1395 1393 1392 1390 1388 1386 1384 1382 1380 1378 1376 1374
1420 1419 1418 1417 1416 1415 1414 1413 1412 1411 1410 1410 1409 1408 1407 1407 1406 1405 1404 1403 1402 1402 1401 1399 1398 1398 1397 1395 1394 1393 1391 1390 1389 1387 1385 1383 1382 1380 1378 1376 1374 1373 1370
1415 1414 1413 1412 1411 1410 1409 1408 1407 1406 1405 1404 1403 1403 1402 1402 1401 1400 1399 1399 1397 1397 1396 1395 1394 1393 1392 1391 1390 1388 1387 1386 1384 1382 1381 1379 1378 1376 1374 1373 1371 1369 1367
1409 1408 1408 1407 1406 1405 1404 1403 1402 1401 1400 1399 1398 1398 1398 1397 1396 1395 1394 1393 1392 1392 1391 1390 1389 1389 1388 1386 1385 1384 1383 1381 1380 1378 1377 1375 1374 1372 1370 1369 1368 1366 1364
1404 1403 1402 1401 1400 1399 1399 1398 1397 1396 1395 1394 1394 1393 1393 1392 1391 1390 1389 1389 1388 1387 1386 1385 1385 1384 1383 1382 1381 1379 1378 1377 1375 1374 1373 1371 1370 1368 1367 1366 1364 1363 1361
1398 1397 1396 1395 1395 1394 1393 1393 1392 1391 1390 1389 1389 1388 1388 1387 1386 1385 1385 1384 1383 1382 1381 1381 1380 1379 1378 1377 1376 1375 1374 1372 1371 1370 1369 1368 1366 1365 1364 1362 1361 1360 1358
1392 1391 1391 1390 1389 1389 1388 1387 1387 1386 1385 1385 1384 1383 1383 1382 1381 1381 1380 1379 1379 1378 1377 1376 1375 1374 1373 1372 1371 1370 1369 1368 1367 1366 1365 1364 1363 1362 1361 1359 1358 1357 1356
1387 1386 1385 1385 1384 1384 1383 1382 1382 1381 1380 1380 1379 1378 1378 1377 1376 1376 1375 1374 1374 1373 1372 1371 1370 1369 1369 1368 1367 1366 1365 1364 1363 1362 1361 1360 1359 1359 1358 1356 1355 1354 1353
1382 1381 1381 1380 1379 1379 1378 1377 1376 1376 1375 1375 1374 1373 1373 1372 1371 1371 1370 1369 1369 1368 1367 1366 1365 1365 1364 1363 1362 1362 1361 1360 1359 1358 1358 1357 1356 1355 1355 1354 1353 1352 1351
1377 1376 1376 1375 1375 1374 1373 1372 1372 1371 1370 1370 1369 1368 1368 1367 1366 1366 1365 1365 1364 1363 1362 1362 1361 1360 1360 1359 1358 1357 1357 1356 1355 1355 1354 1354 1353 1353 1352 1351 1350 1349 1348
1373 1372 1371 1370 1370 1369 1368 1367 1367 1366 1365 1365 1364 1363 1363 1362 1362 1361 1360 1360 1359 1359 1358 1357 1356 1356 1355 1355 1354 1354 1353 1352 1352 1351 1351 1350 1350 1350 1349 1349 1348 1347 1346